1495872001.13,13128,13.38,74018.3,5.73,0.75,0.91,0,*7F
1495872002.32,13129,13.38,74020.8,5.73,-0.19,0.01,0,*60
1495872003.54,13130,13.38,74012.0,5.75,0.63,0.91,0,*77
1495872004.74,13131,13.38,74010.3,5.77,0.09,0.41,0,*45
1495872005.96,13132,13.38,74004.0,5.79,1.21,1.43,0,*70
1495872007.22,13133,13.38,74006.3,5.81,1.17,1.37,0,*70
1495872008.47,13134,13.38,74000.5,5.85,1.13,1.25,0,*74
1495872009.66,13135,13.38,74002.5,5.85,0.97,0.97,0,*70
1495872010.88,13136,13.38,74002.5,5.91,0.59,0.71,0,*7C
1495872012.1,13137,13.38,74002.5,5.91,0.21,0.33,0,*74
1495872013.31,13138,13.38,74000.3,5.91,-0.11,-0.23,0,*79
1495872014.52,13139,13.38,74006.3,5.91,-0.77,-0.97,0,*77
1495872015.74,13140,13.38,74010.5,5.91,-1.05,-1.17,0,*74
1495872016.95,13141,13.38,74014.0,5.91,-1.17,-1.29,0,*7B
1495872018.16,13142,13.38,74012.5,5.89,-1.67,-1.79,0,*73
1495872019.42,13143,13.38,74014.3,5.85,-1.47,-1.47,0,*71
1495872020.64,13144,13.38,74000.0,5.83,-1.79,-1.87,0,*71
1495872021.84,13145,13.38,74000.8,5.85,-1.25,-1.21,0,*73
1495872023.05,13146,13.38,74010.8,5.81,-1.25,-1.17,0,*71
1495872024.3,13147,13.38,74008.8,5.81,-1.09,-1.01,0,*79
1495872025.52,13148,13.38,74006.0,5.79,-1.71,-1.83,0,*74
1495872026.75,13149,13.38,74012.5,5.79,-3.47,-3.63,0,*7E
1495872027.96,13150,13.38,74006.5,5.75,-4.61,-4.77,0,*7B
1495872029.16,13151,13.38,73996.5,5.71,-3.39,-3.51,0,*77
1495872030.37,13152,13.38,74000.5,5.67,-5.31,-5.47,0,*7C
1495872031.59,13153,13.38,74000.0,5.61,-3.75,-3.95,0,*74
1495872032.77,13154,13.38,73996.8,5.59,-2.83,-2.91,0,*75
1495872034.01,13155,13.38,73996.8,5.57,-3.63,-3.79,0,*72
1495872035.2,13156,13.38,73998.0,5.53,-2.31,-2.31,0,*7E
1495872036.46,13157,13.38,73992.3,5.51,-3.59,-4.01,0,*77
1495872037.65,13158,13.38,73998.3,5.45,-3.15,-3.27,0,*76
1495872038.9,13159,13.38,74002.0,5.43,-1.99,-2.15,0,*77
1495872040.11,13160,13.38,74000.0,5.43,-2.99,-3.15,0,*7F
1495872041.29,13161,13.38,74010.8,5.41,-2.31,-2.35,0,*7D
1495872042.5,13162,13.38,74012.8,5.41,-1.51,-1.43,0,*79
1495872043.72,13163,13.38,74012.5,5.41,-0.85,-0.93,0,*7C
1495872044.92,13164,13.38,74010.3,5.41,-1.17,-1.21,0,*79
1495872046.11,13165,13.38,74010.8,5.41,-1.21,-1.21,0,*7D
1495872047.35,13166,13.38,74010.3,5.41,-1.05,-1.09,0,*72
1495872048.57,13167,13.38,74004.0,5.41,-0.85,-0.97,0,*7C
1495872049.77,13168,13.38,74010.5,5.41,-1.17,-1.29,0,*7D
1495872050.95,13169,13.38,74014.8,5.41,-0.81,-0.81,0,*71
1495872052.12,13170,13.38,74020.5,5.41,-0.53,-0.65,0,*7C
1495872053.3,13171,13.38,74020.8,5.41,-0.41,-0.53,0,*7B
1495872054.51,13172,13.38,74022.5,5.43,-0.29,-0.41,0,*77
1495872055.71,13173,13.38,74024.5,5.43,-0.41,-0.61,0,*7A
1495872056.93,13174,13.38,74026.8,5.41,-1.71,-1.83,0,*70
1495872058.14,13175,13.38,74022.0,5.43,-2.15,-2.23,0,*7B
1495872059.36,13176,13.38,74022.5,5.41,-1.05,-1.17,0,*7C
1495872060.62,13177,13.38,74020.5,5.43,-0.89,-1.01,0,*4D
1495872061.79,13178,13.38,74022.3,5.41,-0.29,-0.29,0,*71
1495872062.98,13179,13.38,74022.5,5.43,0.05,0.05,0,*72
1495872064.21,13180,13.38,74022.5,5.43,-1.47,-1.55,0,*77
1495872065.46,13181,13.38,74020.8,5.43,-2.11,-2.23,0,*74
1495872066.67,13182,13.38,74016.5,5.43,-2.15,-2.23,0,*73
1495872067.94,13183,13.38,74016.8,5.43,-1.01,-1.05,0,*73
1495872069.15,13184,13.38,74014.8,5.43,-0.19,-0.19,0,*70
1495872070.35,13185,13.38,74016.5,5.43,-0.65,-0.61,0,*75
1495872071.55,13186,13.38,74008.5,5.43,-0.61,-0.69,0,*7A
1495872072.75,13187,13.38,74014.8,5.43,-0.37,-0.53,0,*71
1495872073.96,13188,13.38,74016.5,5.45,-1.63,-1.83,0,*74
1495872075.2,13189,13.38,74016.3,5.43,-1.29,-1.35,0,*70
1495872076.41,13190,13.38,74018.0,5.43,-1.51,-1.55,0,*71
1495872077.65,13191,13.38,74018.0,5.41,-1.39,-1.43,0,*7B
1495872078.83,13192,13.38,74016.3,5.41,-0.81,-0.81,0,*75
1495872080.02,13193,13.38,74016.3,5.41,-0.81,-0.81,0,*74
1495872081.23,13194,13.38,74016.5,5.41,-1.39,-1.55,0,*79
1495872082.44,13195,13.38,74016.0,5.41,-1.71,-1.95,0,*78
1495872083.69,13196,13.38,74016.8,5.41,-1.39,-1.39,0,*71
1495872084.87,13197,13.38,74012.5,5.41,-0.53,-0.41,0,*73
1495872086.07,13198,13.38,74014.3,5.41,-0.23,-0.19,0,*76
1495872087.25,13199,13.38,74016.0,5.41,-0.45,-0.33,0,*7F
1495872088.42,13200,13.38,74022.0,5.41,-0.07,0.01,0,*56
1495872089.59,13201,13.38,74022.5,5.41,-0.33,-0.33,0,*7C
1495872090.8,13202,13.38,74022.3,5.43,-0.49,-0.49,0,*7D
1495872091.97,13203,13.38,74018.8,5.41,-0.11,-0.07,0,*49
1495872093.18,13204,13.38,74016.0,5.43,-0.49,-0.49,0,*7B
1495872094.37,13205,13.38,74012.0,5.41,-1.17,-1.21,0,*7D
1495872095.58,13206,13.38,74018.0,5.41,-0.85,-0.81,0,*7F
1495872096.76,13207,13.38,74016.5,5.41,-0.41,-0.37,0,*7B
1495872097.97,13208,13.38,74018.8,5.41,-1.09,-1.17,0,*7A
1495872099.15,13209,13.38,74016.8,5.41,-0.73,-0.65,0,*73
1495872100.35,13210,13.38,74016.8,5.41,-0.23,-0.29,0,*76
1495872101.52,13211,13.38,74018.5,5.41,-0.73,-0.65,0,*7A
1495872102.73,13212,13.38,74014.3,5.43,-0.15,-0.19,0,*70
1495872103.96,13213,13.38,74016.0,5.43,-0.19,-0.27,0,*70
1495872105.16,13214,13.38,74018.5,5.43,-0.53,-0.61,0,*7B
1495872106.37,13215,13.38,74014.0,5.43,-0.41,-0.37,0,*7A
1495872107.57,13216,13.38,74010.3,5.43,-0.07,-0.03,0,*7C
1495872108.77,13217,13.38,74008.3,5.43,-0.15,-0.15,0,*79
1495872109.94,13218,13.38,74010.3,5.45,-0.03,0.01,0,*5F
1495872111.12,13219,13.38,74008.8,5.45,-0.45,-0.49,0,*7D
1495872112.33,13220,13.38,74018.5,5.45,-1.25,-1.43,0,*7B
1495872113.54,13221,13.38,74012.5,5.45,-1.43,-1.51,0,*79
1495872114.73,13222,13.38,74004.3,5.45,-1.25,-1.33,0,*7E
1495872115.96,13223,13.38,74006.3,5.45,-1.01,-1.09,0,*70
1495872117.14,13224,13.38,74006.5,5.45,-0.57,-0.57,0,*7F
1495872118.34,13225,13.38,74006.5,5.45,-0.27,-0.15,0,*7F
1495872119.54,13226,13.38,74004.0,5.41,-0.73,-0.85,0,*70
1495872120.81,13227,13.38,74006.0,5.43,-1.47,-1.47,0,*7A
1495872122.0,13228,13.38,74010.0,5.41,-1.67,-1.79,0,*78
1495872123.21,13229,13.38,74008.0,5.41,-2.31,-2.55,0,*74
1495872124.39,13230,13.38,74010.8,5.41,-2.27,-2.43,0,*7C
1495872125.6,13231,13.38,74010.5,5.37,-1.75,-1.95,0,*70
1495872126.82,13232,13.38,74006.0,5.37,-2.39,-2.51,0,*73
1495872128.03,13233,13.38,74010.0,5.35,-2.43,-2.43,0,*7E
1495872129.27,13234,13.38,74018.5,5.33,-2.51,-2.67,0,*7A
1495872130.48,13235,13.38,74008.3,5.31,-2.79,-3.07,0,*74
1495872131.72,13236,13.38,74014.0,5.29,-2.67,-2.71,0,*71
1495872132.96,13237,13.38,74020.3,5.25,-1.95,-2.07,0,*73
1495872134.18,13238,13.38,74014.8,5.25,-2.31,-2.47,0,*75
1495872135.39,13239,13.38,74018.3,5.23,-1.51,-1.47,0,*74
1495872136.63,13240,13.38,74016.0,5.23,-1.91,-1.99,0,*75
1495872137.83,13241,13.38,74014.5,5.21,-1.63,-1.63,0,*7E
1495872139.04,13242,13.38,74012.0,5.21,-1.51,-1.63,0,*7C
1495872140.26,13243,13.38,74014.5,5.19,-1.39,-1.51,0,*79
1495872141.51,13244,13.38,74006.0,5.21,-0.89,-0.85,0,*77
1495872142.71,13245,13.38,74012.0,5.21,-1.59,-1.75,0,*74
1495872143.92,13246,13.38,74010.0,5.21,-2.27,-2.39,0,*76
1495872145.13,13247,13.38,74010.5,5.21,-1.63,-1.75,0,*7F
1495872146.32,13248,13.38,74010.8,5.19,-1.67,-1.67,0,*7C
1495872147.54,13249,13.38,74010.8,5.19,-2.07,-2.15,0,*7E
1495872148.75,13250,13.38,74008.5,5.19,-2.43,-2.59,0,*7E
1495872150.0,13251,13.38,74006.5,5.17,-3.67,-3.71,0,*7D
1495872151.22,13252,13.38,73996.3,5.13,-3.75,-3.83,0,*74
1495872152.41,13253,13.38,73992.5,5.11,-3.87,-4.05,0,*73
1495872153.65,13254,13.38,73996.5,5.07,-1.91,-1.87,0,*79
1495872154.91,13255,13.38,73996.0,5.09,-1.95,-2.03,0,*7D
1495872156.13,13256,13.38,74002.3,5.07,-1.39,-1.51,0,*72
1495872157.32,13257,13.38,74006.0,5.07,-1.67,-1.79,0,*72
1495872158.58,13258,13.38,74008.5,5.09,-1.91,-2.03,0,*74
1495872159.82,13259,13.38,74004.5,5.07,-2.71,-2.67,0,*74
1495872161.04,13260,13.38,74002.0,5.03,-2.07,-2.19,0,*72
1495872162.31,13261,13.38,73998.8,5.01,-1.99,-2.11,0,*7D
1495872163.56,13262,13.38,74002.8,4.99,-2.03,-2.03,0,*7D
1495872164.79,13263,13.38,74002.5,4.99,-1.95,-1.95,0,*7C
1495872166.0,13264,13.38,74010.0,4.97,-1.51,-1.63,0,*74
1495872167.23,13265,13.38,74008.0,4.99,-2.11,-2.23,0,*7B
1495872168.47,13266,13.38,74010.0,4.99,-1.95,-2.11,0,*76
1495872169.71,13267,13.38,74010.0,4.97,-2.39,-2.51,0,*78
1495872170.95,13268,13.38,74008.0,4.97,-2.51,-2.79,0,*73
1495872172.16,13269,13.38,74010.8,4.93,-2.83,-3.07,0,*71
1495872173.4,13270,13.38,74018.0,4.93,-2.43,-2.59,0,*7F
1495872174.62,13271,13.38,74018.5,4.93,-2.19,-2.43,0,*7A
1495872175.86,13272,13.38,74022.0,4.91,-1.71,-1.83,0,*79
1495872177.04,13273,13.38,74014.5,4.89,-2.27,-2.39,0,*73
1495872178.24,13274,13.38,74014.0,4.89,-1.75,-1.95,0,*75
1495872179.45,13275,13.38,74020.5,4.89,-2.51,-2.87,0,*71
1495872180.7,13276,13.38,74018.3,4.87,-2.63,-2.87,0,*7D
1495872181.91,13277,13.38,74018.0,4.87,-2.15,-2.43,0,*75
1495872183.15,13278,13.38,74026.8,4.87,-2.03,-2.31,0,*78
1495872184.39,13279,13.38,74020.0,4.85,-2.55,-2.75,0,*78
1495872185.58,13280,13.44,74030.8,4.85,-2.87,-3.03,0,*71
1495872186.8,13281,13.38,74026.8,4.81,-2.31,-2.55,0,*7B
1495872188.06,13282,13.38,74020.3,4.79,-1.95,-2.03,0,*71
1495872189.29,13283,13.38,74020.8,4.79,-1.71,-1.71,0,*7C
1495872190.48,13284,13.38,74020.0,4.81,-1.33,-1.29,0,*77
1495872191.72,13285,13.38,74016.3,4.79,-2.03,-2.19,0,*71
1495872192.94,13286,13.38,74022.8,4.79,-2.83,-2.99,0,*72
1495872194.16,13287,13.38,74020.0,4.79,-2.23,-2.31,0,*7B
1495872195.41,13288,13.38,74020.3,4.77,-1.99,-2.07,0,*7D
1495872196.64,13289,13.38,74022.0,4.77,-1.13,-1.13,0,*78
1495872197.86,13290,13.38,74022.0,4.79,-0.73,-0.81,0,*73
1495872199.1,13291,13.38,74022.8,4.79,-2.07,-2.15,0,*7C
1495872200.32,13292,13.38,74024.5,4.79,-1.71,-1.71,0,*7C
1495872201.55,13293,13.38,74026.3,4.79,-1.21,-1.21,0,*7D
1495872202.78,13294,13.38,74022.3,4.81,-1.05,-0.97,0,*47
1495872204.0,13295,13.38,74022.3,4.81,-0.93,-0.85,0,*7B
1495872205.23,13296,13.38,74020.8,4.81,-0.97,-0.93,0,*7B
1495872206.41,13297,13.38,74016.8,4.81,-0.69,-0.69,0,*7E
1495872207.67,13298,13.38,74022.0,4.87,-1.01,-1.01,0,*77
1495872208.94,13299,13.38,74016.0,4.87,-1.05,-0.93,0,*48
1495872210.15,13300,13.38,74016.8,4.87,-1.51,-1.51,0,*77
1495872211.38,13301,13.38,74014.8,4.87,-2.67,-2.91,0,*7F
1495872212.57,13302,13.38,74014.8,4.85,-2.15,-2.15,0,*77
1495872213.81,13303,13.38,74018.5,4.87,-2.11,-2.19,0,*7C
1495872215.05,13304,13.38,74022.0,4.81,-1.91,-2.03,0,*7D
1495872216.29,13305,13.38,74024.0,4.79,-2.71,-2.83,0,*7E
1495872217.5,13306,13.38,74022.8,4.81,-2.35,-2.59,0,*7D
1495872218.77,13307,13.38,74020.5,4.79,-1.83,-1.91,0,*72
1495872220.04,13308,13.38,74022.5,4.79,-1.95,-2.07,0,*76
1495872221.26,13309,13.38,74022.5,4.79,-1.71,-1.79,0,*77
1495872222.47,13310,13.38,74026.5,4.79,-2.35,-2.43,0,*76
1495872223.68,13311,13.38,74028.0,4.79,-0.81,-0.81,0,*76
1495872224.9,13312,13.38,74020.8,4.79,-2.23,-2.23,0,*75
1495872226.14,13313,13.38,74022.0,4.77,-1.01,-1.01,0,*7A
1495872227.32,13314,13.38,74026.8,4.77,-1.51,-1.63,0,*7C
1495872228.54,13315,13.38,74026.0,4.77,-1.47,-1.51,0,*7B
1495872229.79,13316,13.38,74026.5,4.79,-1.83,-1.79,0,*74
1495872230.98,13317,13.38,74024.3,4.79,-0.61,-0.61,0,*70
1495872232.2,13318,13.38,74024.8,4.79,-0.41,-0.41,0,*7F
1495872233.38,13319,13.38,74024.5,4.81,-0.69,-0.57,0,*74
1495872234.55,13320,13.38,74020.3,4.81,-0.11,0.01,0,*6F
1495872235.76,13321,13.38,74022.8,4.85,-2.39,-2.55,0,*7C
1495872236.97,13322,13.38,74022.5,4.85,-1.17,-0.93,0,*48
1495872238.16,13323,13.38,74020.8,4.85,-0.41,-0.37,0,*75
1495872239.34,13324,13.38,74020.5,4.85,-0.81,-0.81,0,*73
1495872240.59,13325,13.38,74016.5,4.85,-1.39,-1.43,0,*7F
1495872241.83,13326,13.38,74018.3,4.87,-1.75,-1.87,0,*7E
1495872243.08,13327,13.38,74032.3,4.87,-0.89,-0.89,0,*72
1495872244.26,13328,13.38,74024.0,4.85,-1.25,-1.25,0,*7F
1495872245.45,13329,13.38,74014.8,4.85,-2.31,-2.39,0,*76
1495872246.69,13330,13.38,74016.3,4.81,-1.09,-1.05,0,*7E
1495872247.87,13331,13.38,74020.5,4.81,-0.73,-0.61,0,*70
1495872249.06,13332,13.38,74024.5,4.81,-0.41,-0.33,0,*75
1495872250.24,13333,13.38,74030.0,4.85,-0.81,-0.81,0,*75
1495872251.45,13334,13.38,74030.3,4.87,-0.77,-0.77,0,*70
1495872252.7,13335,13.38,74030.0,4.87,-0.93,-1.01,0,*4B
1495872253.95,13336,13.38,74028.3,4.87,-1.43,-1.63,0,*70
1495872255.19,13337,13.38,74024.5,4.85,-1.91,-1.99,0,*79
1495872256.37,13338,13.38,74032.0,4.85,-0.77,-0.69,0,*71
1495872257.61,13339,13.38,74026.8,4.85,-1.01,-1.05,0,*7B
1495872258.79,13340,13.38,74034.0,4.85,-0.69,-0.57,0,*7C
1495872259.99,13341,13.38,74028.5,4.87,-0.15,-0.07,0,*41
1495872261.2,13342,13.38,74032.5,4.87,-0.37,-0.49,0,*78
1495872262.44,13343,13.38,74032.3,4.91,0.51,0.55,0,*73
1495872263.68,13344,13.38,74034.0,4.91,0.55,0.67,0,*71
1495872264.89,13345,13.38,74032.3,4.95,0.33,0.41,0,*70
1495872266.06,13346,13.38,74032.3,4.95,0.05,0.05,0,*76
1495872267.26,13347,13.38,74032.5,4.95,0.41,0.43,0,*75
1495872268.47,13348,13.38,74034.3,4.99,0.63,0.63,0,*74
1495872269.65,13349,13.38,74032.3,4.99,-0.53,-0.53,0,*75
1495872270.87,13350,13.38,74028.8,4.99,-0.23,-0.11,0,*7C
1495872272.11,13351,13.38,74034.0,5.01,0.55,0.67,0,*7D
1495872273.27,13352,13.38,74028.8,5.03,-0.07,0.01,0,*56
1495872274.45,13353,13.38,74024.0,5.03,-0.29,-0.29,0,*7C
1495872275.65,13354,13.38,74024.8,5.07,-0.27,-0.19,0,*72
1495872276.89,13355,13.38,74028.3,5.09,0.55,0.67,0,*71
1495872278.1,13356,13.38,74032.8,5.11,0.25,0.25,0,*7A
1495872279.28,13357,13.38,74030.3,5.11,-0.41,-0.29,0,*75
1495872280.49,13358,13.38,74026.8,5.11,-0.37,-0.27,0,*75
1495872281.7,13359,13.38,74030.0,5.11,0.47,0.55,0,*76
1495872282.93,13360,13.38,74022.0,5.13,0.17,0.37,0,*7F
1495872284.17,13361,13.38,74024.5,5.17,0.63,0.71,0,*7B
1495872285.41,13362,13.38,74022.3,5.17,0.63,0.59,0,*72
1495872286.65,13363,13.38,74022.3,5.17,0.17,0.21,0,*7F
1495872287.85,13364,13.38,74016.5,5.19,-0.29,-0.23,0,*79
1495872289.06,13365,13.38,74026.8,5.21,-0.45,-0.41,0,*7D
1495872290.28,13366,13.44,74030.3,5.19,-0.93,-0.97,0,*75
1495872291.52,13367,13.38,74020.3,5.19,-2.03,-2.03,0,*70
1495872292.72,13368,13.38,74018.5,5.19,-1.17,-1.21,0,*7A
1495872293.95,13369,13.38,74012.3,5.15,-1.87,-1.95,0,*71
1495872295.14,13370,13.38,74016.0,5.15,-1.25,-1.25,0,*7A
1495872296.36,13371,13.38,74026.8,5.17,-1.21,-1.29,0,*71
1495872297.61,13372,13.38,74024.5,5.13,-1.01,-1.09,0,*76
1495872298.8,13373,13.38,74024.3,5.15,-3.07,-3.11,0,*7E
1495872299.99,13374,13.44,74028.5,5.11,-3.11,-3.11,0,*7A
1495872301.2,13375,13.38,74020.8,5.09,-3.39,-3.39,0,*72
1495872302.39,13376,13.38,74016.3,5.07,-2.27,-2.43,0,*7D
1495872303.63,13377,13.38,74016.5,5.07,-1.87,-1.87,0,*7E
1495872304.86,13378,13.38,74018.5,5.03,-0.97,-0.93,0,*71
1495872306.04,13379,13.38,74014.8,5.03,-0.49,-0.49,0,*74
1495872307.26,13380,13.38,74018.5,5.03,-1.13,-1.21,0,*73
1495872308.47,13381,13.38,74014.3,5.03,-0.85,-0.69,0,*71
1495872309.64,13382,13.38,74010.3,5.07,-0.69,-0.65,0,*78
1495872310.82,13383,13.38,74018.0,5.07,-0.15,-0.07,0,*46
1495872312.05,13384,13.38,74014.0,5.09,-0.27,-0.15,0,*7D
1495872313.32,13385,13.38,74014.5,5.09,-1.43,-1.43,0,*7D
1495872314.52,13386,13.38,74006.8,5.09,-0.45,-0.29,0,*74
1495872315.72,13387,13.38,74014.0,5.11,-0.29,-0.27,0,*78
1495872316.9,13388,13.38,74012.0,5.11,-0.77,-0.53,0,*7F
1495872318.11,13389,13.44,74008.3,5.13,-1.33,-1.21,0,*79
1495872319.35,13390,13.38,74004.8,5.11,-1.83,-1.99,0,*7B
1495872320.57,13391,13.38,74010.8,5.11,-1.35,-1.29,0,*7C
1495872321.78,13392,13.38,74010.8,5.09,-1.55,-1.63,0,*7E
1495872322.98,13393,13.38,74012.3,5.09,-0.29,-0.19,0,*79
1495872324.21,13394,13.38,74012.3,5.11,-0.97,-0.89,0,*7B
1495872325.42,13395,13.38,74008.0,5.11,-1.35,-1.25,0,*74
1495872326.58,13396,13.38,74008.3,5.11,-0.15,0.01,0,*6E
1495872327.79,13397,13.38,74014.8,5.11,0.21,0.33,0,*74
1495872329.02,13398,13.38,74014.5,5.13,-0.37,-0.27,0,*7B
1495872330.26,13399,13.38,74016.8,5.13,0.41,0.59,0,*72
1495872331.49,13400,13.38,74014.8,5.17,-0.23,-0.15,0,*7D
1495872332.7,13401,13.38,74018.8,5.17,0.09,0.17,0,*46
1495872333.9,13402,13.38,74020.0,5.17,-0.65,-0.65,0,*7A
1495872335.1,13403,13.38,74018.8,5.19,-0.81,-0.89,0,*7D
1495872336.31,13404,13.38,74020.8,5.19,0.17,0.33,0,*74
1495872337.49,13405,13.38,74020.3,5.19,-0.57,-0.53,0,*77
1495872338.68,13406,13.38,74024.3,5.19,-0.53,-0.41,0,*73
1495872339.89,13407,13.38,74026.5,5.21,0.25,0.43,0,*7A
1495872341.05,13408,13.38,74026.8,5.23,0.05,0.01,0,*73
1495872342.23,13409,13.38,74026.5,5.23,-0.03,-0.11,0,*45
1495872343.44,13410,13.38,74028.5,5.25,0.75,0.75,0,*78
1495872344.63,13411,13.38,74030.8,5.25,0.13,0.05,0,*4E
1495872345.86,13412,13.38,74032.0,5.25,-0.27,-0.27,0,*7A
1495872347.08,13413,13.38,74034.0,5.31,-0.41,-0.41,0,*7E
1495872348.25,13414,13.38,74030.5,5.29,-0.11,-0.07,0,*47
1495872349.47,13415,13.38,74028.0,5.31,0.95,1.05,0,*40
1495872350.7,13416,13.38,74028.5,5.35,1.05,1.09,0,*73
1495872351.95,13417,13.38,74038.3,5.35,1.67,1.97,0,*71
1495872353.17,13418,13.38,74032.0,5.41,1.89,2.01,0,*71
1495872354.42,13419,13.38,74034.5,5.43,1.43,1.67,0,*77
1495872355.61,13420,13.38,74028.5,5.49,1.01,1.25,0,*77
1495872356.85,13421,13.38,74028.8,5.49,1.21,1.37,0,*77
1495872358.07,13422,13.38,74030.3,5.53,2.05,2.47,0,*7E
1495872359.29,13423,13.38,74026.8,5.59,2.21,2.55,0,*70
1495872360.52,13424,13.38,74024.8,5.63,3.07,3.45,0,*7B
1495872361.71,13425,13.38,74026.5,5.69,3.81,4.19,0,*70
1495872362.92,13426,13.38,74024.0,5.75,2.43,2.65,0,*7C
1495872364.14,13427,13.38,74024.0,5.79,2.77,3.15,0,*70
1495872365.38,13428,13.38,74022.8,5.81,3.03,3.23,0,*7F
1495872366.65,13429,13.38,74024.0,5.89,2.51,2.51,0,*74
1495872367.91,13430,13.38,74022.5,5.93,2.21,2.39,0,*7E
1495872369.14,13431,13.38,74028.3,5.95,2.59,2.69,0,*73
1495872370.4,13432,13.44,74028.3,5.97,1.93,1.97,0,*75
1495872371.64,13433,13.38,74026.5,5.99,1.29,1.25,0,*72
1495872372.87,13434,13.44,74030.8,5.99,1.17,1.25,0,*78
1495872374.08,13435,13.38,74022.8,5.99,1.63,1.79,0,*73
1495872375.31,13436,13.44,74038.0,6.01,1.79,1.59,0,*7B
1495872376.58,13437,13.38,74032.3,6.01,1.21,1.29,0,*70
1495872377.79,13438,13.44,74034.3,6.03,1.21,1.41,0,*73
1495872378.98,13439,13.44,74034.0,6.03,-1.59,-1.79,0,*76
1495872380.2,13440,13.38,74020.0,6.03,-2.55,-2.43,0,*7D
1495872381.48,13441,13.44,74020.8,6.01,-2.03,-1.99,0,*79
1495872382.7,13442,13.38,74022.0,5.97,-4.09,-4.25,0,*78
1495872383.98,13443,13.38,74024.8,5.93,-2.63,-2.67,0,*77
1495872385.2,13444,13.38,74030.5,5.89,-1.51,-1.67,0,*7A
1495872386.44,13445,13.38,74020.3,5.89,-1.39,-1.33,0,*74
1495872387.67,13446,13.38,74018.3,5.83,-1.09,-0.97,0,*41
1495872388.89,13447,13.44,74020.0,5.85,-0.93,-0.69,0,*75
1495872390.13,13448,13.38,74012.3,5.85,-0.97,-0.85,0,*7C
1495872391.32,13449,13.38,74008.3,5.85,-0.07,0.05,0,*51
1495872392.57,13450,13.38,74014.5,5.85,-1.13,-1.09,0,*7D
1495872393.8,13451,13.44,74012.8,5.83,-1.09,-0.93,0,*43
1495872395.0,13452,13.44,74016.3,5.83,-0.45,-0.27,0,*76
1495872396.21,13453,13.38,74012.0,5.83,-1.55,-1.43,0,*74
1495872397.4,13454,13.38,74004.8,5.83,-1.79,-1.71,0,*7C
1495872398.64,13455,13.38,74008.8,5.79,-1.39,-1.35,0,*7C
1495872399.84,13456,13.38,74008.5,5.81,-1.59,-1.59,0,*74
1495872401.06,13457,13.38,74014.3,5.77,-3.79,-3.95,0,*7E
1495872402.26,13458,13.38,74016.5,5.73,-3.31,-3.19,0,*7D
1495872403.44,13459,13.44,74022.5,5.71,-2.91,-2.99,0,*7C
1495872404.62,13460,13.44,74012.3,5.71,-2.39,-2.27,0,*71
1495872405.85,13461,13.44,74012.8,5.67,-2.03,-2.03,0,*78
1495872407.04,13462,13.38,74002.5,5.67,-1.75,-1.79,0,*77
1495872408.25,13463,13.44,74006.3,5.67,-1.87,-1.79,0,*7B
1495872409.46,13464,13.38,74002.0,5.61,-2.23,-2.23,0,*7B
1495872410.72,13465,13.38,74000.0,5.61,-1.95,-1.91,0,*7E
1495872411.9,13466,13.38,74010.3,5.59,-2.15,-2.23,0,*77
1495872413.16,13467,13.38,74004.0,5.57,-1.95,-1.83,0,*7A
1495872414.38,13468,13.38,74004.8,5.59,-2.11,-2.23,0,*7D
1495872415.59,13469,13.38,74016.3,5.53,-1.87,-1.75,0,*7A
1495872416.78,13470,13.44,74016.3,5.53,-2.31,-2.27,0,*78
1495872418.01,13471,13.38,74014.3,5.53,-2.03,-2.03,0,*7E
1495872419.25,13472,13.38,74016.8,5.53,-1.05,-1.05,0,*7D
1495872420.52,13473,13.38,74020.5,5.51,-1.47,-1.39,0,*77
1495872421.75,13474,13.38,74018.8,5.51,-1.55,-1.43,0,*7E
1495872422.99,13475,13.38,74018.3,5.51,-1.47,-1.29,0,*70
1495872424.2,13476,13.38,74014.8,5.51,-0.69,-0.45,0,*75
1495872425.43,13477,13.44,74026.8,5.51,-0.23,-0.11,0,*7B
1495872426.59,13478,13.38,74022.8,5.53,-0.07,-0.03,0,*73
1495872427.76,13479,13.38,74022.8,5.53,-0.03,0.05,0,*5D
1495872428.95,13480,13.38,74030.0,5.57,-0.65,-0.61,0,*70
1495872430.16,13481,13.38,74024.5,5.57,-1.25,-1.33,0,*72
1495872431.39,13482,13.38,74024.8,5.57,-0.77,-0.89,0,*77
1495872432.59,13483,13.44,74032.0,5.57,-0.65,-0.61,0,*73
1495872433.84,13484,13.44,74034.8,5.57,-0.23,-0.27,0,*74
1495872435.04,13485,13.44,74030.0,5.57,-0.77,-0.77,0,*71
1495872436.21,13486,13.38,74024.8,5.59,-0.61,-0.45,0,*7A
1495872437.42,13487,13.38,74022.8,5.57,-0.53,-0.45,0,*74
1495872438.61,13488,13.44,74018.5,5.57,-0.03,0.01,0,*53
1495872439.76,13489,13.38,74018.8,5.59,0.01,0.09,0,*7B
1495872440.95,13490,13.38,74018.0,5.59,-0.77,-0.73,0,*7F
1495872442.11,13491,13.44,74016.3,5.59,-0.03,0.09,0,*5D
1495872443.32,13492,13.38,74016.0,5.63,0.13,0.25,0,*75
1495872444.52,13493,13.38,74018.5,5.63,0.17,0.29,0,*7C
1495872445.73,13494,13.44,74030.8,5.67,0.17,0.29,0,*7F
1495872446.9,13495,13.38,74022.3,5.67,-0.29,-0.29,0,*73
1495872448.14,13496,13.38,74020.0,5.69,-0.85,-0.97,0,*7D
1495872449.34,13497,13.38,74024.0,5.69,-0.49,-0.49,0,*7F
1495872450.52,13498,13.44,74028.0,5.67,-0.53,-0.65,0,*7B
1495872451.72,13499,13.44,74030.3,5.69,-0.41,-0.33,0,*74
1495872452.9,13500,13.38,74028.3,5.69,0.01,0.09,0,*78
1495872454.08,13501,13.38,74030.8,5.67,-0.19,-0.19,0,*7F
1495872455.3,13502,13.44,74032.5,5.69,-0.23,-0.11,0,*73
1495872456.53,13503,13.38,74028.0,5.67,-1.09,-1.01,0,*75
1495872457.76,13504,13.38,74030.3,5.69,-0.37,-0.27,0,*75
1495872458.95,13505,13.38,74028.8,5.71,-0.33,-0.27,0,*79
1495872460.11,13506,13.38,74030.3,5.71,-0.03,0.01,0,*50
1495872461.28,13507,13.44,74032.5,5.71,-0.11,-0.03,0,*4D
1495872462.47,13508,13.38,74028.8,5.71,-0.15,-0.23,0,*74
1495872463.64,13509,13.44,74032.0,5.71,-0.61,-0.65,0,*74
1495872464.84,13510,13.38,74030.8,5.73,-0.57,-0.69,0,*77
1495872466.04,13511,13.38,74024.8,5.71,-1.25,-1.43,0,*79
1495872467.22,13512,13.44,74028.5,5.71,-0.73,-0.73,0,*7A
1495872468.38,13513,13.38,74030.3,5.71,-0.03,0.01,0,*54
1495872469.56,13514,13.38,74032.0,5.71,-0.03,-0.11,0,*4F
1495872470.78,13515,13.38,74038.8,5.71,-0.89,-1.09,0,*44
1495872472.01,13516,13.38,74038.3,5.71,-0.97,-1.01,0,*40
1495872473.21,13517,13.44,74034.8,5.71,-1.09,-1.25,0,*71
1495872474.43,13518,13.44,74026.0,5.71,-0.85,-0.89,0,*7C
1495872475.63,13519,13.44,74030.8,5.69,-0.77,-0.77,0,*78
1495872476.84,13520,13.38,74032.0,5.67,-1.17,-1.13,0,*78
1495872478.01,13521,13.38,74034.8,5.69,0.01,0.05,0,*77
1495872479.22,13522,13.44,74038.8,5.67,0.37,0.47,0,*79
1495872480.43,13523,13.38,74034.5,5.69,-0.37,-0.33,0,*75
1495872481.68,13524,13.44,74028.5,5.69,-1.01,-1.01,0,*76
1495872482.9,13525,13.38,74028.5,5.69,-0.77,-0.85,0,*7A
1495872484.1,13526,13.38,74024.5,5.69,-0.53,-0.53,0,*74
1495872485.3,13527,13.44,74020.8,5.67,-0.37,-0.27,0,*7A
1495872486.49,13528,13.38,74026.0,5.69,-0.11,0.09,0,*6E
1495872487.67,13529,13.38,74022.0,5.71,-0.15,-0.11,0,*76
1495872488.9,13530,13.38,74030.5,5.73,0.25,0.41,0,*7A
1495872490.13,13531,13.38,74032.0,5.73,0.25,0.37,0,*7A
1495872491.33,13532,13.38,74038.5,5.73,-0.57,-0.69,0,*77
1495872492.55,13533,13.38,74028.3,5.71,-0.97,-0.97,0,*79
1495872493.76,13534,13.38,74030.5,5.71,-1.21,-1.09,0,*74
1495872494.95,13535,13.38,74024.5,5.73,-0.61,-0.61,0,*7D
1495872496.15,13536,13.38,74024.0,5.73,-0.29,-0.19,0,*7D
1495872497.34,13537,13.44,74026.3,5.71,-0.77,-0.85,0,*70
1495872498.53,13538,13.38,74024.0,5.71,-1.21,-1.21,0,*72
1495872499.79,13539,13.44,74028.0,5.73,-0.97,-1.05,0,*4B
1495872500.96,13540,13.44,74026.5,5.71,-0.37,-0.49,0,*74
1495872502.17,13541,13.44,74026.0,5.73,0.13,0.05,0,*49
1495872503.35,13542,13.38,74026.3,5.73,0.05,0.01,0,*79
1495872504.53,13543,13.38,74024.3,5.75,-0.19,-0.19,0,*7A
1495872505.7,13544,13.38,74030.5,5.75,-0.03,-0.07,0,*79
1495872506.9,13545,13.38,74032.8,5.77,0.17,0.09,0,*41
1495872508.11,13546,13.44,74030.0,5.81,0.43,0.51,0,*77
1495872509.29,13547,13.38,74022.8,5.79,-0.11,-0.11,0,*72
1495872510.49,13548,13.44,74020.5,5.81,0.43,0.51,0,*79
1495872511.7,13549,13.44,74022.5,5.81,0.09,0.25,0,*45
1495872512.89,13550,13.44,74022.8,5.83,0.91,0.97,0,*77
1495872514.11,13551,13.38,74024.0,5.85,0.91,1.01,0,*4E